Regional Weather Roundup
Issued by NWS Cleveland, OH

Home | Current Version | Previous Version | Graphics & Text | Print | Product List | Glossary On
Versions: 1 2 3 4 5 6 7 8 9 10 11 12 13 14 15 16 17 18 19 20 21 22 23 24 25 26 27 28 29 30 31 32 33 34 35 36 37 38 39 40 41 42 43 44 45 46 47 48 49 50
000
ASUS41 KCLE 250402
RWRCLE
OHIO REGIONAL WEATHER ROUNDUP
NATIONAL WEATHER SERVICE CLEVELAND, OH
1200 AM EDT MON JUL 25 2016

NOTE: "FAIR" INDICATES FEW OR NO CLOUDS BELOW 12,000 FEET WITH NO
SIGNIFICANT WEATHER AND/OR OBSTRUCTIONS TO VISIBILITY.

OHZ001>008-015>018-024>027-034-035-043-044-250500-
   NORTHWEST OHIO

CITY           SKY/WX    TMP DP  RH WIND       PRES   REMARKS
DEFIANCE       CLEAR     81  74  79 SW3       29.92S
FINDLAY        CLEAR     78  72  81 S7        29.93F
TOLEDO EXPRESS CLEAR     77  75  93 S7        29.91F
TOLEDO EXEC    CLEAR     77  75  93 S6        29.92F
LIMA           CLEAR     79  74  84 S7        29.95F
$$

OHZ009>014-019>023-028>033-038-089-250500-
   NORTHEAST OHIO

CITY           SKY/WX    TMP DP  RH WIND       PRES   REMARKS
CLE-HOPKINS    PTCLDY    79  71  76 S10       29.96F
CLE-LAKEFRONT  CLOUDY    80  72  76 S14       29.92F
CUY CO. ARPT   NOT AVBL
LORAIN-ELYRIA  CLEAR     76  71  85 S12       29.95F
ASHTABULA      CLOUDY    74  73  97 S6        29.97F
AKRON-CANTON   CLOUDY    76  72  87 S8        30.00F
WOOSTER        CLEAR     73  70  90 S5        30.00S
MANSFIELD      CLEAR     75  71  87 S9        29.99F
YOUNGSTOWN     MOCLDY    74  71  91 S8        30.00S
$$

OHZ042-051>053-060>062-070>072-077>081-250500-
  SOUTHWEST OHIO

CITY           SKY/WX    TMP DP  RH WIND       PRES   REMARKS
CINC-COVINGTON PTCLDY    80  76  87 S5        29.98S
CINC-LUNKEN    CLEAR     80  76  87 SW3       29.96F
HAMILTON       CLEAR     81  74  79 CALM      29.97F
DAYTON         PTCLDY    82  74  76 SW9       29.98F
WRIGHT-PAT AFB CLEAR     80  77  89 CALM      29.97S
DAYTON GENERAL CLEAR     81  71  71 S3        29.98S
WILMINGTON     CLEAR     78  73  84 SW6       29.99S
$$

OHZ036-037-039>041-045>050-054>059-063>069-073>076-082>088-250500-
  CENTRAL AND SOUTHEAST OHIO

CITY           SKY/WX    TMP DP  RH WIND       PRES   REMARKS
COLUMBUS       PTCLDY    80  73  79 SE3       29.97F
OSU AIRPORT    CLEAR     80  73  79 SE5       29.98F
BOLTON FIELD   PTCLDY    76  74  92 CALM      29.99S
RICKENBACK AFB CLEAR     77  74  89 CALM      29.97F
NEWARK         PTCLDY    74  73  97 CALM      29.99S
MARION         CLEAR     76  73  91 S8        29.97F
LANCASTER      CLEAR     75  73  93 CALM      29.99S
ZANESVILLE     PTCLDY    78  71  79 CALM      30.00S
NEW PHILLY     PTCLDY    77  72  84 CALM      30.00S
$$



USA.gov is the U.S. government's official web portal to all federal, state and local government web resources and services.